Home   Weather   Wittmund   Past weeks

Flag for Germany Past Weather in Wittmund, Lower Saxony, Germany — Yesterday and Last 2 Weeks

48 °F

Light rain. Broken clouds.

Feels Like: 46 °F
Forecast: 45 / 51 °F
Wind: 6 mph from North

Location: Wittmundhaven

Current Time: Oct 21, 2016 at 1:24:58 PM

Latest Report: Oct 21, 2016 at 12:20 PM

Visibility: 4 mi

Pressure: 29.95 "Hg

Humidity: 94%

Dew Point: 46 °F

Location of WittmundLocation

Past Weather in Wittmund — Graph


Wittmund Temperature Yesterday

Maximum temperature yesterday: 50 °F (at 1:20 PM)
Minimum temperature yesterday: 41 °F (at 9:20 PM)
Average temperature yesterday: 46 °F

High & Low Weather Summary for the Past Weeks

High61 °F (Oct 16, 2:20 PM)100% (Oct 8, 11:20 PM)30.33 "Hg (Oct 8, 11:20 PM)
Low37 °F (Oct 8, 11:20 PM)58% (Oct 8, 5:20 PM)29.74 "Hg (Oct 15, 3:20 AM)
Average49 °F88%30.10 "Hg
* Reported Oct 6 11:20 AM — Oct 21 11:20 AM, Wittmund, Weather by CustomWeather, © 2016

Note: Actual official high and low records may vary slightly from our data, if they occured in-between our weather recording intervals... More about our weather records


Wittmund Weather History for the Previous 24 Hours

Scroll right to see more
Time TempWeatherWind HumidityBarometerVisibility
11:20 AM
Fri, Oct 21
48 °FLight rain. Broken clouds.3 mph94%29.95 "Hg4 mi
10:49 AM48 °FLight rain. Fog.3 mph94%29.95 "Hg3 mi
10:20 AM46 °FLight rain. Fog.3 mph100%29.95 "Hg3 mi
10:04 AM46 °FLight rain. Partly sunny.5 mph100%29.95 "Hg4 mi
9:20 AM46 °FLight rain. Partly sunny.5 mph93%29.95 "Hg4 mi
8:20 AM45 °FFog.2 mph100%29.98 "Hg3 mi
7:20 AM45 °FPartly cloudy.2 mph93%29.95 "Hg5 mi
6:20 AM45 °FLight rain. Partly cloudy.3 mph93%29.98 "Hg5 mi
5:20 AM45 °FPartly cloudy.3 mph93%29.98 "HgN/A
4:20 AM43 °FFog.2 mph100%29.98 "HgN/A
3:20 AM41 °FFog.2 mph100%29.98 "HgN/A
2:20 AM39 °FLight rain. Fog.1 mph100%30.01 "HgN/A
1:20 AM41 °FLight rain. Partly cloudy.3 mph100%30.01 "HgN/A
12:20 AM43 °FLight rain. Partly cloudy.3 mph93%30.01 "HgN/A
11:20 PM
Thu, Oct 20
41 °FLight rain. Partly cloudy.3 mph100%30.01 "HgN/A
10:20 PM41 °FPartly cloudy.3 mph100%30.01 "HgN/A
9:50 PM41 °FPartly cloudy.5 mph100%30.01 "HgN/A
9:20 PM41 °FPassing clouds.5 mph93%30.01 "HgN/A
8:20 PM43 °FPassing clouds.5 mph93%29.98 "HgN/A
7:20 PM45 °FPassing clouds.5 mph93%29.98 "HgN/A
6:20 PM46 °FPassing clouds.9 mph87%29.98 "HgN/A
5:20 PM48 °FPartly sunny.10 mph82%29.98 "HgN/A
4:20 PM48 °FPartly sunny.12 mph82%29.95 "HgN/A
3:20 PM48 °FPartly sunny.10 mph87%29.95 "HgN/A
2:20 PM50 °FPartly sunny.12 mph82%29.95 "Hg5 mi
1:20 PM50 °FFog.8 mph94%29.95 "Hg3 mi
Weather by CustomWeather, © 2016

See weather overviewHow to use our weather pages